Location: Babice
(50.3480°N, 22.9363°E)
Time: 12:48:46
(UTC+00:00)

Meteor 1-14 Rocket - Pass Details

Date: 14 July 2020
Orbit: 834 x 918 km, 81.3° (Epoch: 07 August)

Event Time Altitude Azimuth Distance (km) Brightness Sun altitude
Exits shadow 00:22:25 21° 208° (SSW) 1,820 5.3 -14.1°
Maximum altitude 00:26:13 65° 285° (WNW) 937 4.4 -13.9°
Drops below altitude 10° 00:31:53 10° 8° (N) 2,517 7.9 -13.5°
Sets 00:34:23 0° 11° (N) 3,471 8.9 -13.3°
